Preview of NWS' New Version of Forecast
This preview is not operational and should not be used for support decisions.

Regional Weather Roundup (RWR)

Issued by National Weather Service (NWS)

                            
000
ASUS46 KPQR 230810
RWROR 

OREGON REGIONAL WEATHER ROUNDUP
NATIONAL WEATHER SERVICE PORTLAND OR
100 AM PDT SUN JUN 23 2019

NOTE: "FAIR" INDICATES FEW OR NO CLOUDS BELOW 12,000 FEET WITH
NO SIGNIFICANT WEATHER AND/OR OBSTRUCTIONS TO VISIBILITY.

ORZ001>013-230900-
NORTHWEST OREGON

  
CITY           SKY/WX    TMP DP  RH WIND       PRES   REMARKS
ASTORIA        CLOUDY    55  52  89 NW12      30.25S                  
TILLAMOOK      CLOUDY    55  54  94 W7        30.27F                  
NEWPORT        LGT RAIN  54  54 100 N3        30.29F                  
PORTLAND       MOCLDY    60  51  72 NW7       30.22R                  
VANCOUVER WA   CLOUDY    59  51  75 NW7       30.22R                  
SCAPPOOSE      CLOUDY    58  51  78 CALM      30.21S                  
HILLSBORO      PTCLDY    56  50  80 N3        30.22S                  
AURORA         PTCLDY    58  50  75 CALM      30.23S                  
MCMINNVILLE    CLEAR     53  49  86 CALM      30.23R                  
SALEM          CLEAR     57  49  74 NW6       30.22S                  
CORVALLIS      CLOUDY    57  51  80 NW9       30.24R                  
EUGENE         CLEAR     53  47  79 NW3       30.24R                  
$$

ORZ021-028-230900-
SOUTHWEST OREGON

  
CITY           SKY/WX    TMP DP  RH WIND       PRES   REMARKS
NORTH BEND     MOCLDY    56  53  90 N13       30.28S                  
BROOKINGS      CLEAR     63  46  54 NW6       30.12R                  
ROSEBURG       CLEAR     63  47  55 N6        30.20S                  
SEXTON SUMMIT  CLEAR     52  44  74 N10G22    30.21F                  
GRANTS PASS    FAIR      64  48  55 NW8       30.20R                  
MEDFORD        CLEAR     62  41  46 CALM      30.16R                  
$$

ORZ014>016-041-230900-
COLUMBIA GORGE

  
CITY           SKY/WX    TMP DP  RH WIND       PRES   REMARKS
TROUTDALE      CLOUDY    60  52  74 CALM      30.21S                  
HOOD RIVER     PTCLDY    61  46  59 W6        30.13R                  
THE DALLES     PTCLDY    63  48  58 W16G23    30.09R                  
$$

ORZ029>031-041-044-049-050-061>064-502-503-505>511-230900-
EASTERN OREGON

  
CITY           SKY/WX    TMP DP  RH WIND       PRES   REMARKS
MADRAS         CLEAR     54  43  66 W9        30.16S                  
REDMOND        PTCLDY    52  40  63 E3        30.16S                  
BEND           PTCLDY    52  41  66 SE3       30.16S                  
PRINEVILLE     PTCLDY    45  37  76 CALM      30.16F                  
KLAMATH FALLS  CLEAR     56  42  59 W8        30.17R                  
LAKEVIEW       CLEAR     49  38  65 NW9       30.18R                  
HERMISTON      CLEAR     63  47  55 SW14G23   30.04R                  
PENDLETON      PTCLDY    60  45  57 W23G31    30.05R                  
JOHN DAY       CLEAR     57  34  41 W12       30.13S                  
MEACHAM        CLEAR     52  38  58 VRB3      30.10S                  
LA GRANDE      CLEAR     57  38  48 NW9       30.09R                  
BAKER CITY     CLEAR     52  44  74 S6        30.08S                  
BURNS          CLEAR     51  34  52 NW8       30.12R                  
ROME             N/A     56  29  35 S9        30.07F                  
ONTARIO        PTCLDY    59  46  62 N5        30.02S                  
$$